This is the latest recevied weather packets stored in our database for station/object KC5AV. If no packets are shown the sender has not sent any weather packets the latest 10 day(s).
| Time | Temp. | Humidity | Pressure | Rain* | Wind** | Luminosity | Snow |
|---|---|---|---|---|---|---|---|
| 1777508207 | 18.89° C | 96% | 1012 hPa | 0 mm | - | 17 W/m² | - |
| 1777507904 | 18.89° C | 96% | 1012.1 hPa | 0 mm | - | 18 W/m² | - |
| 1777507601 | 19.44° C | 96% | 1012.3 hPa | 0 mm | - | 23 W/m² | - |
| 1777507298 | 19.44° C | 96% | 1012.3 hPa | 0 mm | - | 25 W/m² | - |
| 1777506995 | 19.44° C | 96% | 1012.4 hPa | 0 mm | - | 20 W/m² | - |
| 1777506692 | 19.44° C | 96% | 1012.7 hPa | 0 mm | - | 15 W/m² | - |
| 1777506388 | 19.44° C | 96% | 1012.7 hPa | 0 mm | - | 23 W/m² | - |
| 1777506085 | 20° C | 96% | 1012.5 hPa | 0 mm | - | 39 W/m² | - |
| 1777505780 | 20° C | 96% | 1012.7 hPa | 0 mm | - | 53 W/m² | - |
| 1777505478 | 20° C | 96% | 1012.6 hPa | 0 mm | - | 62 W/m² | - |
| 1777505174 | 20° C | 96% | 1012.3 hPa | 0 mm | - | 53 W/m² | - |
| 1777504871 | 20° C | 97% | 1012 hPa | 0 mm | - | 112 W/m² | - |
| 1777504568 | 20.56° C | 98% | 1012.2 hPa | 0 mm | - | 92 W/m² | - |
| 1777504263 | 20.56° C | 98% | 1012 hPa | 0 mm | - | 80 W/m² | - |
| 1777503959 | 20° C | 98% | 1011.4 hPa | 0 mm | - | 184 W/m² | - |
| 1777503656 | 20° C | 98% | 1010.7 hPa | 0 mm | - | 161 W/m² | - |
| 1777503353 | 20° C | 99% | 1010.9 hPa | 0 mm | - | 342 W/m² | - |
| 1777503049 | 19.44° C | 98% | 1010.7 hPa | 0 mm | - | 144 W/m² | - |
| 1777502747 | 18.89° C | 98% | 1010.7 hPa | 0 mm | - | 167 W/m² | - |
| 1777502443 | 18.89° C | 98% | 1011.1 hPa | 0 mm | - | 166 W/m² | - |
| 1777502140 | 18.89° C | 98% | 1011.1 hPa | 0 mm | - | 164 W/m² | - |
| 1777501838 | 18.33° C | 98% | 1010.9 hPa | 0 mm | - | 187 W/m² | - |
| 1777501535 | 18.33° C | 98% | 1011.4 hPa | 0.51 mm | - | 73 W/m² | - |
| 1777501232 | 18.33° C | 98% | 1011.4 hPa | 2.29 mm | - | 53 W/m² | - |
| 1777500930 | 18.33° C | 98% | 1012.4 hPa | 5.33 mm | - | 40 W/m² | - |
* Rain latest hour (hover to see other rain measurements)
** Current wind speed in m/s (hover to see current wind gust speed)